GW2402 Weather Reports


Display with metric or nautical units.
time (UTC)temp
F
wind
direction
speed
MPH
gust
MPH
rain 1hr
in
rain 24hr
in
rain mn
in
humidity
%
barometer
mb
20260902030048 88 0 0.0 0.0 0.00 0.00 0.00 62 1013.5
20260902024556 89 0 0.0 0.0 0.00 0.00 0.00 61 1013.3
20260902023048 89 0 0.0 0.0 0.00 0.00 0.00 60 1013.1
20260902021549 90 0 0.0 0.0 0.00 0.00 0.00 59 1012.9
20260902020047 90 0 0.0 0.0 0.00 0.00 0.00 58 1012.7
20260902014554 91 0 0.0 1.0 0.00 0.00 0.00 56 1012.4
20260902013049 92 0 0.0 1.0 0.00 0.00 0.00 55 1012.2
20260902011553 92 0 0.0 1.0 0.00 0.00 0.00 54 1012.1
20260902010050 94 0 0.0 1.0 0.00 0.00 0.00 52 1012.0
20260902004557 94 0 0.0 1.0 0.00 0.00 0.00 50 1011.8
20260902003055 95 0 0.0 0.0 0.00 0.00 0.00 48 1011.9
20260902001547 96 0 0.0 1.0 0.00 0.00 0.00 47 1011.9
20260902000050 97 42 0.0 1.0 0.00 0.00 0.00 46 1012.0
20260901234553 98 0 0.0 1.0 0.00 0.00 0.00 47 1012.0
20260901233057 97 0 0.0 1.0 0.00 0.00 0.00 47 1012.1
20260901231548 97 98 0.0 1.0 0.00 0.00 0.00 47 1012.1
20260901230045 98 239 0.0 1.0 0.00 0.00 0.00 45 1011.9
20260901224603 100 0 0.0 1.0 0.00 0.00 0.00 44 1012.1
20260901223055 100 0 0.0 2.0 0.00 0.00 0.00 45 1012.0
20260901221557 100 0 0.0 1.0 0.00 0.00 0.00 44 1012.3
20260901220050 100 0 0.0 1.0 0.00 0.00 0.00 44 1012.3
20260901214601 100 98 0.0 3.0 0.00 0.00 0.00 45 1012.3
20260901213102 99 0 0.0 1.0 0.00 0.00 0.00 45 1012.5
20260901211550 100 257 0.0 1.0 0.00 0.00 0.00 44 1012.3
20260901210113 99 0 0.0 1.0 0.00 0.00 0.00 46 1012.7
20260901204555 99 252 0.0 1.0 0.00 0.00 0.00 45 1012.8
20260901203052 99 252 0.0 2.0 0.00 0.00 0.00 46 1013.1
20260901201559 98 250 0.0 3.0 0.00 0.00 0.00 46 1013.3
20260901200108 97 0 1.0 4.0 0.00 0.00 0.00 48 1013.8
20260901194557 96 281 0.0 1.0 0.00 0.00 0.00 50 1013.7
20260901193050 97 0 0.0 2.0 0.00 0.00 0.00 48 1014.2
20260901191553 97 312 0.0 1.0 0.00 0.00 0.00 49 1014.1
20260901190056 96 13 0.0 1.0 0.00 0.00 0.00 48 1014.2
20260901184604 96 266 0.0 2.0 0.00 0.00 0.00 51 1014.6
20260901183104 96 0 0.0 1.0 0.00 0.00 0.00 52 1014.9
20260901181547 96 0 0.0 1.0 0.00 0.00 0.00 52 1015.0
20260901180043 95 0 0.0 1.0 0.00 0.00 0.00 53 1015.1
20260901174551 95 0 0.0 1.0 0.00 0.00 0.00 53 1015.6
20260901173049 94 0 0.0 1.0 0.00 0.00 0.00 54 1016.0
20260901171558 93 0 0.0 1.0 0.00 0.00 0.00 58 1016.0
20260901170050 91 0 0.0 3.0 0.00 0.00 0.00 61 1016.1
20260901164546 91 0 0.0 3.0 0.00 0.00 0.00 62 1016.1
20260901163101 90 0 0.0 2.0 0.00 0.00 0.00 64 1016.0
20260901161559 90 0 0.0 2.0 0.00 0.00 0.00 65 1016.3
20260901160048 89 0 0.0 1.0 0.00 0.00 0.00 66 1016.5
20260901154610 89 0 0.0 1.0 0.00 0.00 0.00 67 1016.4
20260901153105 88 0 0.0 1.0 0.00 0.00 0.00 67 1016.4
20260901151553 86 0 0.0 2.0 0.00 0.00 0.00 71 1016.4
20260901150055 85 0 0.0 1.0 0.00 0.00 0.00 74 1016.4
20260901144559 84 322 0.0 3.0 0.00 0.00 0.00 77 1016.4
20260901143047 83 0 0.0 1.0 0.00 0.00 0.00 79 1016.6
20260901141557 82 0 0.0 0.0 0.00 0.00 0.00 81 1016.8
20260901140059 81 0 0.0 0.0 0.00 0.00 0.00 83 1016.7
20260901134557 81 0 0.0 0.0 0.00 0.00 0.00 84 1016.7
20260901133056 80 0 0.0 0.0 0.00 0.00 0.00 85 1016.4
20260901131548 79 0 0.0 0.0 0.00 0.00 0.00 87 1016.1
20260901124556 79 0 0.0 0.0 0.00 0.00 0.00 87 1015.9
20260901123056 79 0 0.0 0.0 0.00 0.00 0.00 87 1015.7
20260901121547 79 0 0.0 0.0 0.00 0.00 0.00 88 1015.7
20260901120055 78 0 0.0 0.0 0.00 0.00 0.00 88 1015.6
20260901114551 79 0 0.0 0.0 0.00 0.00 0.00 87 1015.5
20260901113057 79 0 0.0 0.0 0.00 0.00 0.00 87 1015.4
20260901111550 79 0 0.0 0.0 0.00 0.00 0.00 87 1015.5
20260901110058 79 0 0.0 2.0 0.00 0.00 0.00 86 1015.5
20260901104553 79 0 0.0 0.0 0.00 0.00 0.00 87 1015.4
20260901103105 80 0 0.0 1.0 0.00 0.00 0.00 86 1015.2
20260901101557 80 0 0.0 1.0 0.00 0.00 0.00 86 1015.2
20260901100058 80 0 0.0 1.0 0.00 0.00 0.00 86 1015.2
20260901094550 80 0 0.0 1.0 0.00 0.00 0.00 86 1015.4
20260901093054 80 0 0.0 0.0 0.00 0.00 0.00 84 1015.6
20260901091554 80 0 0.0 0.0 0.00 0.00 0.00 83 1015.7
20260901084606 81 0 0.0 0.0 0.00 0.00 0.00 82 1015.6
20260901083047 81 0 0.0 0.0 0.00 0.00 0.00 82 1015.4
20260901081546 81 0 0.0 2.0 0.00 0.00 0.00 81 1015.5
20260901080104 81 0 0.0 0.0 0.00 0.00 0.00 80 1015.4
20260901074553 82 0 0.0 0.0 0.00 0.00 0.00 79 1015.5
20260901073052 82 0 0.0 0.0 0.00 0.00 0.00 78 1015.5
20260901071557 82 0 0.0 0.0 0.00 0.00 0.00 78 1015.4
20260901070057 82 0 0.0 0.0 0.00 0.00 0.00 77 1015.5
20260901064558 83 0 0.0 0.0 0.00 0.00 0.00 76 1015.4
20260901063059 83 0 0.0 1.0 0.00 0.00 0.00 75 1015.3
20260901061558 83 0 0.0 1.0 0.00 0.00 0.00 73 1015.2
20260901060057 84 0 0.0 1.0 0.00 0.00 0.00 72 1015.1
20260901054553 84 0 0.0 1.0 0.00 0.00 0.00 71 1015.3
20260901053057 85 252 0.0 1.0 0.00 0.00 0.00 71 1015.1
20260901051555 85 0 0.0 1.0 0.00 0.00 0.00 69 1015.0
20260901050055 86 0 0.0 0.0 0.00 0.00 0.00 68 1014.7
20260901044603 86 0 0.0 1.0 0.00 0.00 0.00 67 1014.7
20260901043048 87 0 0.0 1.0 0.00 0.00 0.00 66 1014.9
20260901041558 87 0 0.0 1.0 0.00 0.00 0.00 65 1014.6
20260901040054 87 0 0.0 1.0 0.00 0.00 0.00 64 1014.5
20260901034600 88 0 0.0 1.0 0.00 0.00 0.00 63 1014.5
20260901033055 88 0 0.0 1.0 0.00 0.00 0.00 61 1014.5
20260901031555 88 0 0.0 1.0 0.00 0.00 0.00 59 1014.2